Regional Weather Roundup
Issued by NWS

Home | Current Version | Previous Version | Graphics & Text | Print | Product List | Glossary On
Versions: 1 2 3 4 5 6 7 8 9 10 11 12 13 14 15 16 17 18 19 20 21 22 23 24 25 26 27 28 29 30 31 32 33 34 35 36 37 38 39 40 41 42 43 44 45 46 47 48 49 50
000
ASUS45 KBOU 302107
RWRCO

WEATHER ROUNDUP FOR COLORADO
NATIONAL WEATHER SERVICE DENVER/BOULDER CO
300 PM MDT SUN APR 30 2017

NOTE: "FAIR" INDICATES FEW OR NO CLOUDS BELOW 12000 FEET WITH NO
SIGNIFICANT WEATHER AND/OR OBSTRUCTIONS TO VISIBILITY.

COZ001>005-013-030-031-302200-
...NORTHWEST COLORADO...

CITY           SKY/WX    TMP DP  RH WIND       PRES   REMARKS
CRAIG          CLOUDY    52  22  30 W14       30.06F
HAYDEN         FAIR      48  19  32 W16G24    30.06F
MEEKER         CLOUDY    52  24  33 S9        30.07F
MOUNT WERNER   NOT AVBL
STEAMBOAT SPGS PTSUNNY   46  23  41 SW15      30.05F
WALDEN           N/A     43  14  31 W18G25    30.05R
$$

COZ006>008-011-302200-
...WEST CENTRAL VALLEYS...

CITY           SKY/WX    TMP DP  RH WIND       PRES   REMARKS
GRAND JUNCTION FAIR      57  19  22 CALM      30.06F
MONTROSE       FAIR      53  16  23 N5        30.08F
EAGLE          MOSUNNY   54  14  20 W12G21    30.05F
RIFLE          PTSUNNY   60  15  17 N10       30.05S
DELTA          FAIR      62  17  17 W16       30.05F
NUCLA          FAIR      59  14  17 NW8G20    30.10S
$$

COZ017>023-064>068-302200-
...SOUTHWEST COLORADO...

CITY           SKY/WX    TMP DP  RH WIND       PRES   REMARKS
DURANGO        FAIR      59  13  16 SW14G26   29.97F
CORTEZ         FAIR      58  11  15 NW9G25    30.05F
PAGOSA SPRINGS FAIR      53  14  21 SW12G17   29.99F
TELLURIDE      FAIR      43  16  34 N3        30.14S
WOLF CREEK PAS FAIR      32   3  29 SW3       30.15S
$$

COZ009-010-012-014-032>034-037-058>063-302200-
...CENTRAL COLORADO...

CITY           SKY/WX    TMP DP  RH WIND       PRES   REMARKS
ASPEN          PTSUNNY   46  18  32 VRB7G25   30.04F
BUENA VISTA    FAIR      49   8  19 NW26G43   29.93F
COPPER MTN     LGT SNOW  30  14  51 NW15G28   30.07S WCI  19
BERTHOUD PASS  HVY SNOW  18   7  62 NW31      30.01S VSB<1/4 WCI  -2
COTTONWOOD PAS FAIR      43  10  26 NW12G24   29.99R
GUNNISON       FAIR      49  10  20 NW17      30.01F
KREMMLING      FAIR      52  21  30 NW13      30.06S
LEADVILLE      FAIR      37  14  38 NW21G29   30.02F
MONARCH PASS   FAIR      30  12  47 NW18G29   30.17R WCI  18
SALIDA         FAIR      55  10  16 N16G25    29.99F
SUNLIGHT       FAIR      30  14  51 W6        30.18S WCI  24
WILKERSON PASS FAIR      34  12  40 N7        30.02R WCI  28
$$

COZ069>075-302200-
...SAN LUIS VALLEY/SANGRE DE CRISTO MOUNTAINS...

CITY           SKY/WX    TMP DP  RH WIND       PRES   REMARKS
ALAMOSA        FAIR      57   5  12 N21G31    29.92F
LA VETA PASS   FAIR      43  18  36 SW6G16    30.08S
SAGUACHE       FAIR      55   5  13 NW25G32   29.94S
$$

COZ035-036-038>040-302200-
...NORTHERN COLORADO FRONT RANGE...

CITY           SKY/WX    TMP DP  RH WIND       PRES   REMARKS
DENVER INTL AP FAIR      58  21  24 N31G41    29.84F
DMNS CITY PARK   N/A     57  17  21 NE13G22   29.86F
AURORA         MOSUNNY   54  22  28 N25G37    29.86F
FRONT RANGE AP MOSUNNY   57  28  33 NW28G40   29.86
ERIE MUNI ARPT FAIR      60  16  18 NE7G18    29.85F
BOULDER MUN AP FAIR      55  27  33 S7        29.86F
CENTENNIAL     FAIR      50  22  33 NW9G22    29.87F
BROOMFIELD     MOSUNNY   57  25  28 W8        29.88F
FORT COLLINS   FAIR      60  23  24 NW29G37   29.87S
LONGMONT       FAIR      65  25  22 CALM      29.86F
$$

COZ041-046-047-076>085-087-088-302200-
...PIKES PEAK/PALMER DIVIDE AND SOUTHERN FOOTHILLS...

CITY           SKY/WX    TMP DP  RH WIND       PRES   REMARKS
COLO. SPRINGS  FAIR      52  15  23 N29G38    29.87F
A. F. ACADEMY  FAIR      47  20  34 N24G30    29.87F
SCHRIEVER AFB  FAIR      48  19  32 N24G35    29.88F
ELLICOTT       FAIR     N/A N/A N/A N25G40    29.85F
FALCON         FAIR      46  19  33 N22G33    29.89F
FORT CARSON    FAIR      54  18  24 N17       29.85F
LIMON          FAIR      52  22  30 N36G47    29.81F
MONUMENT HILL  FAIR      37  23  56 NW15      29.91F
TRINIDAD       FAIR      44  24  45 N14       29.91F
$$

COZ042>045-048>051-090-091-302200-
...NORTHEAST COLORADO...

CITY           SKY/WX    TMP DP  RH WIND       PRES   REMARKS
GREELEY ARPT   FAIR      63  19  18 N24G36    29.84F
AKRON          FAIR      53  15  22 N35G44    29.82F
BURLINGTON     NOT AVBL
WRAY           NOT AVBL
STERLING       FAIR      57  19  23 N29G36    29.81F
HOLYOKE        FAIR      54  21  28 N29G40    29.79F
FORT MORGAN    FAIR      58  18  21 N30G38    29.85F
$$

COZ086-089-092>099-302200-
...SOUTHEAST COLORADO...

CITY           SKY/WX    TMP DP  RH WIND       PRES   REMARKS
PUEBLO         FAIR      56  28  34 N18       29.86F
LA JUNTA       FAIR      54  30  40 N25G44    29.83F
LAMAR          FAIR      53  27  36 N33G41    29.74F
SPRINGFIELD      N/A     38  29  70 NW26      29.76F
$$



USA.gov is the U.S. government's official web portal to all federal, state and local government web resources and services.